sat.trackr.live / text

‹ back to catalog

KOREASAT 6A

NORAD 61910 · 2024-206A

PAYLOAD ACTIVE UNKNOWN

§ Identity

Operator
Country
SKOR
Launch date
2024-11-11
Launch site
AFETR
Launch vehicle
Mass (kg)
RCS (m²)

Purposes: comms

External: N2YO · Heavens-Above · Gunter

§ Orbital elements

Epoch: 2026-09-19T20:16:42.034080Z

Period
1,436.08 min
Inclination
0.0236°
Eccentricity
0.0000834
Mean motion
1.00272901 rev/d
Perigee alt
35,782.8 km
Apogee alt
35,789.8 km
Semi-major
42,164.4 km
B*
0.0000e+0
RAAN
226.3512°
Arg perigee
286.5491°
Mean anomaly
266.0712°
Rev number
678

§ Raw data

KOREASAT 6A1 61910U 24206A   26262.84493095 -.00000366  00000+0  00000+0 0  99952 61910   0.0236 226.3512 0000834 286.5491 266.0712  1.00272901  6788

JSON: /api/v1/satellites/61910 · /tle

For live sub-satellite position, see the globe view (requires WebGL).

§ Visibility from observer

Set your observer location to see the next 7 days of passes ≥ 10°. The values pass through the URL so the page stays shareable.

No JS? Fill the form by hand. The geolocation button needs JavaScript.